Tracking 19794 objects as of 22-Jul-2019
HD Live streaming from Space Station
objects crossing your sky now

CBERS 1 DEB

Track CBERS 1 DEB now!
10-day predictions


NORAD ID: 30783
Int'l Code: 1999-057NS
Perigee: 750.5 km
Apogee: 821.6 km
Inclination: 98.2 °
Period: 100.4 minutes
Semi major axis: 7157 km
RCS: 0.0241 m2 (small)
Launch date: October 14, 1999
Source: China/Brazil (CHBZ)
Launch site: Taiyaun Space Center, China (TSC)

Note: This is SATELLITE DEBRIS
aabbcc
Your satellite tracking list
Your tracking list is empty




NASA's NSSDC Master Catalog

Two Line Element Set (TLE):
1 30783U 99057NS  19202.15343223  .00000302  00000-0  12136-3 0  9999
2 30783  98.1575  55.0829 0049668 253.3865 230.3571 14.33837817647971
Source of the keplerian elements: AFSPC